1501099200.38,59505,19.0,73172.3,0.21,-13.51,-12.79,0,*49
1501099201.6,59506,19.0,73168.8,0.21,-13.69,-12.97,0,*41
1501099202.84,59507,19.0,73174.8,0.21,-13.79,-13.11,0,*4E
1501099204.1,59508,19.0,73176.5,0.21,-13.83,-13.19,0,*4C
1501099205.29,59509,19.0,73174.8,0.23,-13.73,-13.07,0,*4F
1501099206.48,59510,19.0,73172.3,0.23,-13.65,-13.07,0,*40
1501099207.72,59511,19.0,73174.8,0.23,-13.79,-13.01,0,*4A
1501099208.94,59512,19.0,73172.3,0.21,-13.69,-12.97,0,*44
1501099210.17,59513,19.0,73178.8,0.19,-13.83,-13.07,0,*42
1501099211.39,59514,19.0,73172.0,0.19,-13.83,-13.11,0,*42
1501099212.64,59515,19.0,73176.3,0.21,-13.83,-13.23,0,*49
1501099213.84,59516,19.0,73174.0,0.19,-13.93,-13.19,0,*49
1501099215.06,59517,19.0,73170.5,0.21,-13.93,-13.23,0,*4A
1501099216.26,59518,19.0,73172.5,0.19,-13.93,-13.19,0,*47
1501099217.48,59519,19.0,73172.5,0.19,-13.79,-12.97,0,*45
1501099218.71,59520,19.0,73172.8,0.19,-13.83,-12.93,0,*4E
1501099219.96,59521,19.0,73174.8,0.21,-13.83,-13.07,0,*48
1501099221.18,59522,19.0,73176.5,0.19,-13.83,-12.97,0,*48
1501099222.41,59523,19.0,73172.5,0.19,-13.83,-12.93,0,*4D
1501099223.64,59524,19.0,73174.8,0.19,-13.83,-12.93,0,*4A
1501099224.89,59525,19.0,73174.8,0.21,-13.69,-12.71,0,*48
1501099226.15,59526,19.0,73178.0,0.19,-13.83,-12.79,0,*4C
1501099227.4,59527,19.0,73172.8,0.19,-13.83,-12.83,0,*48
1501099228.67,59528,19.0,73176.8,0.21,-13.79,-12.65,0,*41
1501099229.88,59529,19.0,73174.3,0.19,-13.65,-12.57,0,*47
1501099231.16,59530,19.0,73174.8,0.17,-13.97,-12.75,0,*4C
1501099232.44,59531,19.0,73178.0,0.17,-13.97,-12.71,0,*49
1501099233.71,59532,19.0,73178.3,0.17,-13.83,-12.57,0,*4B
1501099234.98,59533,19.0,73174.8,0.17,-13.87,-12.57,0,*4E
1501099236.25,59534,19.0,73178.5,0.17,-13.87,-12.61,0,*4C
1501099237.51,59535,19.0,73174.0,0.17,-13.87,-12.61,0,*4D
1501099238.78,59536,19.0,73172.3,0.17,-13.87,-12.57,0,*4B
1501099240.04,59537,19.0,73174.8,0.17,-13.87,-12.57,0,*4A
1501099241.29,59538,19.0,73174.3,0.17,-13.83,-12.43,0,*44
1501099242.51,59539,19.0,73172.8,0.17,-13.73,-12.29,0,*46
1501099243.78,59540,19.0,73172.5,0.17,-13.61,-12.11,0,*40
1501099245.0,59541,19.0,73172.8,0.15,-13.55,-12.11,0,*44
1501099246.22,59542,19.0,73174.5,0.15,-13.47,-11.97,0,*49
1501099247.44,59543,19.0,73170.5,0.15,-13.47,-11.97,0,*48
1501099248.68,59544,19.0,73174.5,0.17,-13.47,-11.97,0,*4D
1501099249.95,59545,19.0,73174.8,0.17,-13.61,-12.11,0,*45
1501099251.19,59546,19.0,73176.8,0.17,-13.55,-11.97,0,*4C
1501099252.43,59547,19.0,73174.5,0.15,-13.61,-11.97,0,*48
1501099253.68,59548,19.0,73168.0,0.17,-13.43,-11.89,0,*4A
1501099254.9,59549,19.0,73168.5,0.15,-13.47,-11.89,0,*4D
1501099256.12,59550,19.0,73174.0,0.15,-13.43,-11.77,0,*40
1501099257.36,59551,19.0,73170.5,0.17,-13.43,-11.73,0,*47
1501099258.63,59552,19.0,73168.3,0.17,-13.29,-11.63,0,*49
1501099259.88,59553,19.0,73174.8,0.15,-13.33,-11.63,0,*41
1501099261.15,59554,19.0,73176.3,0.17,-13.33,-11.59,0,*4D
1501099262.4,59555,19.0,73176.8,0.15,-13.33,-11.63,0,*47
1501099263.65,59556,19.0,73178.0,0.15,-13.33,-11.63,0,*44
1501099264.89,59557,19.0,73172.8,0.15,-13.33,-11.55,0,*40
1501099266.16,59558,19.0,73176.5,0.17,-13.33,-11.55,0,*4D
1501099267.41,59559,19.0,73178.8,0.13,-13.19,-11.33,0,*40
1501099268.65,59560,19.0,73174.3,0.13,-13.19,-11.33,0,*4A
1501099269.84,59561,19.0,73178.3,0.15,-13.15,-11.15,0,*45
1501099271.04,59562,19.0,73176.0,0.15,-13.23,-11.19,0,*4F
1501099272.26,59563,19.0,73176.5,0.15,-13.15,-11.07,0,*44
1501099273.46,59564,19.0,73178.3,0.15,-13.11,-10.89,0,*40
1501099274.65,59565,19.0,73174.5,0.15,-13.11,-10.89,0,*41
1501099275.85,59566,19.0,73174.8,0.15,-13.11,-10.93,0,*49
1501099277.08,59567,19.0,73174.3,0.15,-13.23,-11.07,0,*45
1501099278.27,59568,19.0,73172.3,0.15,-13.15,-10.89,0,*48
1501099279.46,59569,19.0,73174.3,0.15,-13.15,-10.89,0,*49
1501099280.69,59570,19.0,73168.5,0.15,-13.23,-10.79,0,*4B
1501099281.94,59571,19.0,73172.5,0.15,-13.29,-10.79,0,*40
1501099283.18,59572,19.0,73170.3,0.17,-13.15,-10.75,0,*42
1501099284.46,59573,19.0,73172.3,0.13,-13.29,-10.79,0,*44
1501099285.72,59574,19.0,73172.5,0.13,-13.19,-10.67,0,*4F
1501099286.92,59575,19.0,73172.3,0.15,-12.97,-10.45,0,*4F
1501099288.11,59576,19.0,73170.0,0.15,-12.89,-10.45,0,*43
1501099289.33,59577,19.0,73172.0,0.17,-12.97,-10.49,0,*43
1501099290.56,59578,19.0,73170.0,0.15,-13.01,-10.57,0,*4F
1501099291.76,59579,19.0,73172.3,0.15,-13.11,-10.49,0,*40
1501099292.96,59580,19.0,73174.8,0.15,-12.97,-10.35,0,*42
1501099294.16,59581,19.0,73172.3,0.15,-12.97,-10.31,0,*47
1501099295.37,59582,19.0,73176.3,0.15,-12.89,-10.35,0,*4F
1501099296.59,59583,19.0,73172.0,0.17,-12.89,-10.23,0,*4B
1501099297.83,59584,19.0,73176.0,0.17,-12.83,-10.31,0,*45
1501099299.05,59585,19.0,73172.3,0.15,-13.01,-10.45,0,*4E
1501099300.28,59586,19.0,73176.0,0.15,-13.01,-10.45,0,*4D
1501099301.5,59587,19.0,73172.8,0.17,-12.89,-10.19,0,*46
1501099302.72,59588,19.0,73172.5,0.17,-12.97,-10.35,0,*48
1501099303.95,59589,19.0,73168.0,0.15,-13.01,-10.31,0,*41
1501099305.17,59590,19.0,73168.0,0.17,-13.11,-10.45,0,*49
1501099306.39,59591,19.0,73168.3,0.17,-13.11,-10.45,0,*48
1501099307.58,59592,19.0,73174.5,0.15,-13.15,-10.49,0,*41
1501099308.83,59593,19.0,73172.0,0.17,-13.01,-10.31,0,*48
1501099310.05,59594,19.0,73170.3,0.17,-12.97,-10.31,0,*41
1501099311.3,59595,19.0,73170.5,0.17,-13.23,-10.67,0,*4D
1501099312.54,59596,19.0,73168.8,0.17,-13.15,-10.63,0,*4F
1501099313.79,59597,19.0,73172.0,0.17,-13.01,-10.49,0,*43
1501099315.04,59598,19.0,73172.5,0.17,-13.11,-10.67,0,*41
1501099316.28,59599,19.0,73176.5,0.17,-13.15,-10.75,0,*47
1501099317.49,59600,19.0,73174.8,0.17,-13.15,-10.89,0,*47
1501099318.73,59601,19.0,73176.5,0.17,-13.29,-11.01,0,*48
1501099320.0,59602,19.0,73174.3,0.17,-13.29,-11.07,0,*4D
1501099321.24,59603,19.0,73174.3,0.17,-13.33,-11.15,0,*44
1501099322.49,59604,19.0,73176.0,0.21,-13.29,-11.11,0,*49
1501099323.72,59605,19.0,73174.0,0.19,-13.51,-11.29,0,*47
1501099324.92,59606,19.0,73174.5,0.19,-13.51,-11.41,0,*4A
1501099326.14,59607,19.0,73174.3,0.19,-13.55,-11.55,0,*4A
1501099327.37,59608,19.0,73172.0,0.19,-13.55,-11.59,0,*49
1501099328.58,59609,19.0,73174.0,0.19,-13.65,-11.81,0,*4E
1501099329.8,59610,19.0,73174.8,0.19,-13.69,-11.81,0,*4A
1501099331.01,59611,19.0,73174.5,0.19,-13.65,-11.81,0,*47
1501099332.23,59612,19.0,73172.3,0.19,-13.65,-11.85,0,*40
1501099333.46,59613,19.0,73170.0,0.19,-13.65,-11.93,0,*46
1501099334.68,59614,19.0,73174.8,0.19,-13.65,-12.07,0,*4F
1501099335.9,59615,19.0,73168.3,0.19,-13.69,-12.07,0,*42
1501099337.15,59616,19.0,73168.0,0.19,-13.79,-12.35,0,*41
1501099338.35,59617,19.0,73168.0,0.19,-13.69,-12.21,0,*44
1501099339.57,59618,19.0,73172.0,0.19,-13.83,-12.25,0,*4B
1501099340.8,59619,19.0,73168.3,0.19,-13.79,-12.21,0,*4B
1501099342.08,59620,19.0,73168.3,0.21,-13.83,-12.35,0,*4A
1501099343.3,59621,19.0,73170.3,0.19,-13.69,-12.35,0,*44
1501099344.55,59622,19.0,73168.8,0.21,-13.69,-12.35,0,*4C
1501099345.75,59623,19.0,73170.3,0.19,-13.69,-12.39,0,*4A
1501099347.02,59624,19.0,73168.0,0.21,-13.83,-12.57,0,*4A
1501099348.3,59625,19.0,73170.3,0.21,-13.83,-12.53,0,*4F
1501099349.55,59626,19.0,73166.0,0.19,-13.79,-12.53,0,*42
1501099350.83,59627,19.0,73170.3,0.21,-13.83,-12.53,0,*4D
1501099352.05,59628,19.0,73166.3,0.19,-13.69,-12.53,0,*4D
1501099353.3,59629,19.0,73168.3,0.19,-13.79,-12.53,0,*4D
1501099354.54,59630,19.0,73168.5,0.19,-13.79,-12.57,0,*41
1501099355.83,59631,19.0,73170.0,0.21,-13.83,-12.71,0,*4A
1501099357.07,59632,19.0,73164.3,0.19,-13.83,-12.65,0,*47
1501099358.32,59633,19.0,73168.8,0.21,-13.69,-12.57,0,*48
1501099359.56,59634,19.0,73170.8,0.21,-13.69,-12.65,0,*4E
1501099360.81,59635,19.0,73168.5,0.19,-13.83,-12.79,0,*4D
1501099362.09,59636,19.0,73164.3,0.21,-13.83,-12.83,0,*40
1501099363.34,59637,19.0,73162.8,0.19,-13.83,-12.83,0,*4A
1501099364.59,59638,19.0,73166.5,0.19,-13.83,-12.83,0,*45
1501099365.79,59639,19.0,73166.3,0.19,-13.93,-12.93,0,*44
1501099366.98,59640,19.0,73164.5,0.19,-13.93,-12.97,0,*4E
1501099368.24,59641,19.0,73164.0,0.19,-13.83,-12.79,0,*4E
1501099369.47,59642,19.0,73164.0,0.19,-13.83,-12.97,0,*4D
1501099370.69,59643,19.0,73166.8,0.19,-13.79,-12.93,0,*4D
1501099371.91,59644,19.0,73168.0,0.19,-13.69,-12.65,0,*42
1501099373.15,59645,19.0,73166.8,0.19,-13.79,-12.83,0,*4A
1501099374.38,59646,19.0,73164.3,0.19,-13.83,-12.97,0,*49
1501099375.64,59647,19.0,73164.8,0.19,-13.83,-12.79,0,*48
1501099376.89,59648,19.0,73164.5,0.19,-13.83,-12.83,0,*42
1501099378.14,59649,19.0,73166.5,0.19,-13.83,-12.83,0,*43
1501099379.36,59650,19.0,73164.5,0.19,-13.83,-13.07,0,*46
1501099380.56,59651,19.0,73166.0,0.19,-13.93,-12.93,0,*4A
1501099381.81,59652,19.0,73170.8,0.19,-13.79,-12.79,0,*49
1501099383.04,59653,19.0,73166.3,0.19,-13.97,-12.97,0,*48
1501099384.26,59654,19.0,73168.0,0.19,-14.05,-13.11,0,*4C
1501099385.52,59655,19.0,73164.5,0.21,-13.97,-12.97,0,*45
1501099386.71,59656,19.0,73170.3,0.19,-13.93,-12.93,0,*4D
1501099387.91,59657,19.0,73170.3,0.19,-13.93,-12.93,0,*4C
1501099389.12,59658,19.0,73164.0,0.19,-13.93,-12.83,0,*42
1501099390.35,59659,19.0,73168.0,0.19,-13.97,-12.97,0,*42
1501099391.58,59660,19.0,73168.3,0.19,-14.05,-13.11,0,*4B
1501099392.81,59661,19.0,73170.5,0.19,-14.05,-13.11,0,*4A
1501099394.05,59662,19.0,73168.5,0.17,-14.29,-13.29,0,*42
1501099395.27,59663,19.0,73168.5,0.17,-14.23,-13.23,0,*43
1501099396.52,59664,19.0,73166.5,0.17,-14.23,-13.29,0,*4E
1501099397.74,59665,19.0,73172.3,0.17,-14.15,-13.23,0,*40
1501099398.95,59666,19.0,73166.8,0.15,-14.15,-13.23,0,*41
1501099400.15,59667,19.0,73166.3,0.15,-14.11,-13.11,0,*45
1501099401.35,59668,19.0,73170.3,0.15,-14.11,-13.15,0,*4E
1501099402.55,59669,19.0,73166.5,0.15,-14.23,-13.23,0,*4B
1501099403.75,59670,19.0,73168.0,0.15,-14.11,-12.97,0,*4C
1501099405.02,59671,19.0,73170.3,0.17,-13.97,-13.01,0,*48
1501099406.22,59672,19.0,73172.8,0.15,-14.15,-13.11,0,*45
1501099407.42,59673,19.0,73168.3,0.15,-14.11,-13.11,0,*40
1501099408.64,59674,19.0,73168.3,0.17,-14.23,-13.15,0,*40
1501099409.85,59675,19.0,73170.3,0.15,-14.23,-13.23,0,*46
1501099411.05,59676,19.0,73170.8,0.15,-14.15,-13.11,0,*41
1501099412.25,59677,19.0,73168.0,0.15,-14.23,-13.23,0,*44
1501099413.48,59678,19.0,73168.5,0.15,-14.29,-13.29,0,*4B
1501099414.68,59679,19.0,73168.8,0.15,-14.23,-13.23,0,*4A
1501099415.92,59680,19.0,73170.0,0.13,-14.33,-13.33,0,*4A
1501099417.17,59681,19.0,73170.5,0.13,-14.33,-13.29,0,*40
1501099418.43,59682,19.0,73164.5,0.13,-14.05,-12.93,0,*46
1501099419.68,59683,19.0,73164.0,0.13,-14.19,-13.29,0,*4A
1501099420.92,59684,19.0,73166.3,0.11,-14.05,-13.07,0,*4E
1501099422.2,59685,19.0,73164.5,0.13,-14.05,-13.01,0,*4B
1501099423.45,59686,19.0,73160.8,0.15,-13.97,-12.83,0,*49
1501099424.7,59687,19.0,73162.3,0.13,-14.01,-12.89,0,*4C
1501099425.98,59688,19.0,73166.0,0.13,-13.87,-12.79,0,*45
1501099427.24,59689,19.0,73166.0,0.13,-14.05,-12.93,0,*4D
1501099428.46,59690,19.0,73166.0,0.13,-14.15,-13.07,0,*48
1501099429.72,59691,19.0,73168.8,0.13,-14.01,-12.93,0,*40
1501099430.99,59692,19.0,73166.5,0.11,-14.01,-13.01,0,*4B
1501099432.24,59693,19.0,73164.5,0.13,-14.05,-13.07,0,*4A
1501099433.48,59694,19.0,73166.8,0.11,-14.01,-13.07,0,*4B
1501099434.76,59695,19.0,73164.8,0.13,-14.05,-13.01,0,*4A
1501099436.01,59696,19.0,73162.8,0.13,-14.01,-12.93,0,*47
1501099437.28,59697,19.0,73164.8,0.11,-14.01,-13.01,0,*4E
1501099438.51,59698,19.0,73166.8,0.15,-13.97,-12.89,0,*4C
1501099439.78,59699,19.0,73166.3,0.13,-14.05,-13.01,0,*46
1501099441.06,59700,19.0,73162.5,0.13,-14.05,-13.01,0,*47
1501099442.34,59701,19.0,73164.0,0.13,-13.87,-12.75,0,*49
1501099443.61,59702,19.0,73166.3,0.13,-13.87,-12.75,0,*4A
1501099444.83,59703,19.0,73164.0,0.13,-13.93,-12.93,0,*46
1501099446.11,59704,19.0,73166.0,0.13,-13.87,-12.75,0,*4C
1501099447.33,59705,19.0,73166.0,0.13,-13.93,-12.89,0,*4B
1501099448.61,59706,19.0,73166.5,0.13,-13.79,-12.75,0,*4F
1501099449.87,59707,19.0,73162.8,0.13,-13.79,-12.65,0,*4F
1501099451.1,59708,19.0,73160.8,0.13,-13.93,-12.93,0,*4D
1501099452.34,59709,19.0,73164.0,0.13,-13.87,-12.89,0,*42
1501099453.62,59710,19.0,73160.0,0.13,-13.61,-12.61,0,*44
1501099454.88,59711,19.0,73166.5,0.13,-13.51,-12.53,0,*47
1501099456.1,59712,19.0,73162.3,0.15,-13.69,-12.75,0,*4D
1501099457.32,59713,19.0,73160.8,0.15,-13.69,-12.61,0,*49
1501099458.54,59714,19.0,73158.3,0.15,-13.47,-12.61,0,*42
1501099459.79,59715,19.0,73158.5,0.15,-13.87,-12.75,0,*4A
1501099461.02,59716,19.0,73156.3,0.15,-13.69,-12.71,0,*4D
1501099462.24,59717,19.0,73160.3,0.15,-13.87,-12.89,0,*4B
1501099463.47,59718,19.0,73166.0,0.15,-13.87,-12.89,0,*44
1501099464.72,59719,19.0,73164.3,0.15,-13.83,-12.83,0,*4B
1501099465.96,59720,19.0,73166.5,0.15,-13.87,-12.83,0,*45
1501099467.19,59721,19.0,73164.8,0.15,-13.55,-12.71,0,*46
1501099468.47,59722,19.0,73162.0,0.17,-13.61,-12.71,0,*40
1501099469.69,59723,19.0,73162.8,0.15,-13.73,-12.75,0,*44
1501099470.94,59724,19.0,73160.8,0.17,-13.73,-12.71,0,*45
1501099472.18,59725,19.0,73164.3,0.17,-13.47,-12.57,0,*47
1501099473.43,59726,19.0,73166.5,0.17,-13.69,-12.71,0,*4C
1501099474.67,59727,19.0,73164.3,0.17,-13.73,-12.75,0,*42
1501099475.92,59728,19.0,73162.3,0.17,-13.73,-12.75,0,*4D
1501099477.19,59729,19.0,73156.0,0.17,-13.83,-12.75,0,*43
1501099478.44,59730,19.0,73166.5,0.17,-13.73,-12.75,0,*44
1501099479.72,59731,19.0,73164.0,0.17,-13.83,-12.75,0,*4A
1501099480.96,59732,19.0,73162.8,0.19,-13.79,-12.79,0,*4E
1501099482.18,59733,19.0,73166.3,0.19,-13.65,-12.65,0,*4F
1501099483.45,59734,19.0,73160.3,0.17,-13.83,-12.83,0,*46
1501099484.72,59735,19.0,73170.0,0.17,-13.97,-13.01,0,*49
1501099485.99,59736,19.0,73164.3,0.17,-13.83,-12.83,0,*44
1501099487.24,59737,19.0,73166.8,0.17,-13.87,-12.89,0,*4B
1501099488.48,59738,19.0,73160.0,0.17,-13.87,-12.89,0,*44
1501099489.73,59739,19.0,73162.3,0.17,-14.01,-13.11,0,*4C
1501099490.95,59740,19.0,73164.0,0.19,-14.05,-13.11,0,*48
1501099492.15,59741,19.0,73162.8,0.19,-13.93,-12.97,0,*4E
1501099493.34,59742,19.0,73160.0,0.19,-13.93,-12.93,0,*49
1501099494.57,59743,19.0,73160.3,0.19,-13.97,-13.11,0,*47
1501099495.81,59744,19.0,73162.8,0.17,-14.33,-13.29,0,*4C
1501099497.05,59745,19.0,73164.0,0.17,-14.29,-13.29,0,*46
1501099498.26,59746,19.0,73164.3,0.19,-14.11,-13.19,0,*43
1501099499.5,59747,19.0,73166.8,0.17,-14.29,-13.29,0,*44
1501099500.72,59748,19.0,73166.0,0.17,-14.23,-13.23,0,*4B
1501099501.94,59749,19.0,73162.5,0.15,-14.23,-13.29,0,*42
1501099503.17,59750,19.0,73166.3,0.17,-14.15,-13.15,0,*42
1501099504.39,59751,19.0,73164.0,0.17,-14.23,-13.23,0,*43
1501099505.61,59752,19.0,73166.0,0.15,-14.29,-13.29,0,*42
1501099506.83,59753,19.0,73166.0,0.17,-14.15,-13.23,0,*44
1501099508.06,59754,19.0,73170.0,0.15,-14.23,-13.29,0,*4E
1501099509.31,59755,19.0,73170.8,0.13,-14.33,-13.33,0,*43
1501099510.56,59756,19.0,73166.5,0.13,-14.33,-13.33,0,*40
1501099511.78,59757,19.0,73164.5,0.15,-14.33,-13.33,0,*47
1501099513.02,59758,19.0,73164.3,0.17,-14.29,-13.29,0,*4A
1501099514.24,59759,19.0,73164.0,0.15,-14.29,-13.29,0,*49
1501099515.43,59760,19.0,73164.0,0.15,-14.33,-13.43,0,*44
1501099516.65,59761,19.0,73166.8,0.15,-14.23,-13.29,0,*48
1501099517.86,59762,19.0,73166.8,0.15,-14.15,-13.23,0,*44
1501099519.06,59763,19.0,73162.3,0.15,-14.11,-13.11,0,*40
1501099520.28,59764,19.0,73168.0,0.15,-14.01,-13.15,0,*42
1501099521.48,59765,19.0,73168.3,0.15,-14.11,-13.11,0,*46
1501099522.71,59766,19.0,73166.3,0.15,-14.01,-13.15,0,*40
1501099523.91,59767,19.0,73166.3,0.15,-14.15,-13.15,0,*44
1501099525.15,59768,19.0,73162.3,0.13,-14.19,-13.19,0,*4D
1501099526.35,59769,19.0,73166.3,0.15,-14.15,-13.15,0,*4A
1501099527.6,59770,19.0,73164.5,0.13,-14.37,-13.33,0,*40
1501099528.85,59771,19.0,73166.0,0.13,-14.19,-13.29,0,*46
1501099530.09,59772,19.0,73170.3,0.13,-14.15,-13.19,0,*4A
1501099531.29,59773,19.0,73170.3,0.15,-14.15,-13.15,0,*41
1501099532.53,59774,19.0,73164.5,0.11,-14.05,-13.07,0,*40
1501099533.79,59775,19.0,73166.8,0.13,-14.01,-12.93,0,*4B
1501099535.06,59776,19.0,73164.5,0.13,-14.01,-13.01,0,*42
1501099536.32,59777,19.0,73160.5,0.13,-14.15,-13.01,0,*46
1501099537.54,59778,19.0,73162.5,0.15,-14.15,-13.29,0,*45
1501099538.79,59779,19.0,73166.0,0.13,-14.29,-13.33,0,*46
1501099540.02,59780,19.0,73164.3,0.13,-14.15,-13.07,0,*48
1501099541.24,59781,19.0,73164.5,0.15,-13.87,-12.89,0,*44
1501099542.47,59782,19.0,73166.8,0.15,-13.73,-12.71,0,*4B
1501099543.7,59783,19.0,73164.8,0.15,-13.73,-12.71,0,*4A
1501099544.95,59784,19.0,73166.3,0.17,-13.73,-12.75,0,*4B
1501099546.19,59785,19.0,73170.0,0.15,-14.01,-13.01,0,*48
1501099547.45,59786,19.0,73166.5,0.15,-13.83,-12.83,0,*4D
1501099548.72,59787,19.0,73168.8,0.17,-13.83,-12.83,0,*4E
1501099549.94,59788,19.0,73172.8,0.15,-13.87,-12.89,0,*4D
1501099551.17,59789,19.0,73166.5,0.15,-14.01,-13.11,0,*45
1501099552.39,59790,19.0,73170.5,0.15,-14.11,-13.01,0,*4D
1501099553.62,59791,19.0,73164.5,0.15,-13.97,-12.89,0,*44
1501099554.82,59792,19.0,73166.0,0.15,-14.11,-13.11,0,*4E
1501099556.02,59793,19.0,73166.3,0.15,-14.11,-13.15,0,*4B
1501099557.27,59794,19.0,73166.8,0.15,-13.97,-13.01,0,*40
1501099558.52,59795,19.0,73166.3,0.17,-13.97,-13.11,0,*42
1501099559.76,59796,19.0,73162.8,0.15,-13.87,-12.83,0,*48
1501099561.04,59797,19.0,73162.0,0.17,-13.83,-12.75,0,*46
1501099562.26,59798,19.0,73160.3,0.15,-13.87,-12.89,0,*4C
1501099563.53,59799,19.0,73164.0,0.17,-13.87,-12.83,0,*45
1501099564.78,59800,19.0,73162.3,0.15,-13.83,-12.83,0,*4C
1501099566.05,59801,19.0,73160.3,0.17,-13.87,-12.83,0,*4B
1501099567.27,59802,19.0,73164.3,0.15,-13.87,-12.89,0,*40
1501099568.52,59803,19.0,73166.8,0.17,-13.97,-12.97,0,*4D
1501099569.77,59804,19.0,73170.8,0.15,-13.97,-13.01,0,*46
1501099571.04,59805,19.0,73166.0,0.17,-13.97,-13.01,0,*45
1501099572.29,59806,19.0,73166.0,0.17,-13.97,-12.97,0,*48
1501099573.51,59807,19.0,73166.8,0.17,-14.15,-13.15,0,*4F
1501099574.76,59808,19.0,73164.5,0.17,-14.01,-13.15,0,*45
1501099576.0,59809,19.0,73166.3,0.15,-14.01,-13.01,0,*43
1501099577.26,59810,19.0,73166.3,0.17,-13.97,-12.97,0,*4F
1501099578.5,59811,19.0,73164.5,0.17,-13.87,-12.89,0,*40
1501099579.75,59812,19.0,73164.5,0.17,-13.97,-12.89,0,*42
1501099580.99,59813,19.0,73166.3,0.17,-13.87,-12.89,0,*42
1501099582.22,59814,19.0,73166.0,0.15,-13.97,-12.97,0,*49
1501099583.47,59815,19.0,73164.3,0.15,-14.01,-13.01,0,*4E
1501099584.71,59816,19.0,73166.8,0.17,-14.01,-13.15,0,*4A
1501099585.94,59817,19.0,73166.3,0.15,-14.01,-13.15,0,*49
1501099587.19,59818,19.0,73166.3,0.17,-13.97,-12.97,0,*47
1501099588.46,59819,19.0,73162.3,0.17,-13.83,-12.83,0,*46
1501099589.72,59820,19.0,73164.8,0.15,-13.83,-12.71,0,*43
1501099591.0,59821,19.0,73166.3,0.17,-13.83,-12.71,0,*40
1501099592.26,59822,19.0,73166.8,0.15,-13.83,-12.71,0,*41
1501099593.53,59823,19.0,73164.0,0.17,-13.83,-12.75,0,*46
1501099594.78,59824,19.0,73162.8,0.17,-13.83,-12.89,0,*42
1501099596.04,59825,19.0,73170.5,0.15,-13.83,-12.83,0,*4B
1501099597.28,59826,19.0,73166.3,0.17,-13.73,-12.75,0,*4C
1501099598.52,59827,19.0,73166.5,0.17,-13.69,-12.61,0,*43
1501099599.77,59828,19.0,73164.0,0.17,-13.87,-12.89,0,*4A
1501099600.99,59829,19.0,73166.5,0.15,-13.87,-12.89,0,*49
1501099602.26,59830,19.0,73164.8,0.17,-13.87,-12.83,0,*49
1501099603.5,59831,19.0,73170.0,0.17,-13.87,-12.89,0,*42
1501099604.74,59832,19.0,73162.5,0.17,-13.87,-12.97,0,*4E
1501099605.99,59833,19.0,73160.5,0.15,-13.97,-13.01,0,*42
1501099607.24,59834,19.0,73162.3,0.17,-14.01,-12.97,0,*41
1501099608.47,59835,19.0,73160.8,0.15,-14.01,-12.97,0,*42
1501099609.7,59836,19.0,73158.5,0.15,-14.01,-13.15,0,*4A
1501099610.9,59837,19.0,73162.5,0.15,-14.11,-13.11,0,*4E
1501099612.12,59838,19.0,73160.0,0.15,-14.01,-12.97,0,*4F
1501099613.37,59839,19.0,73162.8,0.15,-13.87,-12.83,0,*42
1501099614.6,59840,19.0,73160.8,0.15,-13.87,-12.89,0,*46
1501099615.82,59841,19.0,73160.5,0.17,-14.11,-13.11,0,*4D
1501099617.02,59842,19.0,73166.0,0.15,-14.15,-13.11,0,*48
1501099618.27,59843,19.0,73164.8,0.17,-13.97,-12.97,0,*49
1501099619.47,59844,19.0,73160.0,0.15,-14.11,-13.11,0,*4A
1501099620.69,59845,19.0,73162.5,0.15,-14.11,-13.01,0,*4A
1501099621.96,59846,19.0,73164.3,0.17,-14.01,-13.01,0,*4A
1501099623.2,59847,19.0,73160.8,0.17,-14.11,-13.01,0,*4A
1501099624.41,59848,19.0,73162.8,0.15,-14.15,-13.15,0,*46
1501099625.6,59849,19.0,73162.5,0.15,-14.11,-13.15,0,*43
1501099626.85,59850,19.0,73162.8,0.17,-14.01,-12.97,0,*43
1501099628.08,59851,19.0,73164.3,0.15,-14.15,-13.01,0,*4B
1501099629.32,59852,19.0,73160.8,0.17,-14.11,-13.01,0,*4E
1501099630.55,59853,19.0,73162.5,0.15,-13.97,-12.97,0,*4A
1501099631.77,59854,19.0,73160.8,0.17,-14.11,-13.11,0,*49
1501099632.98,59855,19.0,73162.3,0.15,-14.15,-13.11,0,*4E
1501099634.21,59856,19.0,73162.3,0.15,-13.97,-12.97,0,*4F
1501099635.46,59857,19.0,73162.0,0.15,-13.97,-13.01,0,*40
1501099636.68,59858,19.0,73162.8,0.15,-14.11,-13.01,0,*46
1501099637.91,59859,19.0,73166.8,0.15,-13.97,-12.97,0,*40
1501099639.15,59860,19.0,73164.5,0.15,-14.01,-13.01,0,*4C
1501099640.39,59861,19.0,73162.5,0.15,-13.97,-12.89,0,*44
1501099641.63,59862,19.0,73162.8,0.15,-13.97,-13.01,0,*46
1501099642.88,59863,19.0,73164.0,0.17,-13.97,-12.97,0,*4B
1501099644.11,59864,19.0,73160.8,0.15,-14.11,-13.01,0,*49
1501099645.35,59865,19.0,73164.5,0.15,-14.01,-13.01,0,*49
1501099646.6,59866,19.0,73166.5,0.15,-14.01,-13.01,0,*4A
1501099647.83,59867,19.0,73164.5,0.15,-13.97,-13.11,0,*42
1501099649.06,59868,19.0,73166.3,0.15,-13.97,-12.97,0,*42
1501099650.31,59869,19.0,73160.5,0.15,-13.97,-12.83,0,*46
1501099651.56,59870,19.0,73166.8,0.15,-13.87,-12.83,0,*4F
1501099652.83,59871,19.0,73164.5,0.17,-13.87,-12.75,0,*45
1501099654.06,59872,19.0,73164.3,0.15,-13.97,-12.89,0,*46
1501099655.29,59873,19.0,73164.0,0.15,-13.97,-12.89,0,*47
1501099656.54,59874,19.0,73164.3,0.15,-14.01,-13.01,0,*49
1501099657.81,59875,19.0,73164.3,0.17,-14.01,-13.01,0,*4A
1501099659.01,59876,19.0,73164.5,0.15,-14.15,-13.11,0,*4F
1501099660.21,59877,19.0,73164.5,0.15,-14.11,-13.11,0,*4A
1501099661.45,59878,19.0,73166.0,0.17,-14.29,-13.29,0,*47
1501099662.67,59879,19.0,73160.0,0.15,-14.33,-13.29,0,*4F
1501099663.89,59880,19.0,73164.5,0.15,-14.33,-13.29,0,*49
1501099665.14,59881,19.0,73162.8,0.13,-14.37,-13.33,0,*41
1501099666.38,59882,19.0,73162.5,0.11,-14.37,-13.29,0,*4B
1501099667.63,59883,19.0,73160.8,0.13,-14.29,-13.33,0,*4C
1501099668.88,59884,19.0,73162.8,0.11,-14.37,-13.33,0,*46
1501099670.13,59885,19.0,73160.5,0.13,-14.37,-13.33,0,*45
1501099671.37,59886,19.0,73162.5,0.11,-14.37,-13.33,0,*44
1501099672.62,59887,19.0,73162.8,0.13,-14.37,-13.33,0,*47
1501099673.85,59888,19.0,73160.8,0.13,-14.19,-13.15,0,*40
1501099675.06,59889,19.0,73164.3,0.11,-14.19,-13.15,0,*43
1501099676.3,59890,19.0,73166.0,0.11,-14.15,-13.19,0,*4B
1501099677.52,59891,19.0,73164.8,0.13,-14.29,-13.19,0,*47
1501099678.79,59892,19.0,73166.3,0.11,-14.05,-13.01,0,*41
1501099680.04,59893,19.0,73166.8,0.11,-14.05,-13.07,0,*46
1501099681.26,59894,19.0,73168.8,0.11,-14.15,-13.07,0,*40
1501099682.48,59895,19.0,73170.5,0.13,-14.19,-13.15,0,*4C
1501099683.71,59896,19.0,73170.3,0.11,-14.19,-13.19,0,*41
1501099684.95,59897,19.0,73170.3,0.11,-14.33,-13.29,0,*4B
1501099686.19,59898,19.0,73166.3,0.11,-14.29,-13.29,0,*4F
1501099687.41,59899,19.0,73164.0,0.11,-14.19,-13.15,0,*42
1501099688.67,59900,19.0,73168.0,0.11,-14.01,-13.01,0,*4F
1501099689.89,59901,19.0,73168.5,0.09,-14.05,-12.93,0,*79
1501099691.14,59902,19.0,73170.3,0.11,-13.87,-12.89,0,*45
1501099692.41,59903,19.0,73166.3,0.11,-13.87,-12.79,0,*4B
1501099693.62,59904,19.0,73164.0,0.11,-13.93,-12.89,0,*46
1501099694.89,59905,19.0,73166.5,0.11,-13.87,-12.79,0,*4D
1501099696.14,59906,19.0,73166.5,0.11,-13.73,-12.75,0,*49
1501099697.4,59907,19.0,73166.5,0.11,-13.79,-12.65,0,*43
1501099698.67,59908,19.0,73168.0,0.11,-13.87,-12.79,0,*40
1501099699.94,59909,19.0,73168.5,0.11,-13.87,-12.75,0,*4D
1501099701.21,59910,19.0,73168.8,0.11,-13.79,-12.75,0,*44
1501099702.43,59911,19.0,73170.8,0.13,-13.93,-12.93,0,*4B
1501099703.7,59912,19.0,73174.0,0.11,-14.01,-12.79,0,*42
1501099704.92,59913,19.0,73170.5,0.11,-13.93,-12.89,0,*40
1501099706.17,59914,19.0,73166.8,0.11,-14.01,-12.93,0,*40
1501099707.41,59915,19.0,73168.0,0.11,-14.05,-13.07,0,*49
1501099708.66,59916,19.0,73168.8,0.11,-14.19,-13.01,0,*41
1501099709.88,59917,19.0,73164.3,0.13,-14.19,-13.15,0,*47
1501099711.1,59918,19.0,73162.3,0.11,-14.19,-13.15,0,*4A